JEREZ current weather conditions

sailwx.info

Air temperature 20.0° C
Dewpoint 19.0° C

Last reported at 2015-Jul-30 03:30 UTC.
Time now 2015-Jul-30 06:10 UTC

Location: N 36°45' W 006°04'.
View on Google Maps.

See reports from other nearby stations

  
Tides and Currents Weather Stations Pressure Air Temp Water Temp Dewpoint Dewpoint Depression Visibility Wind Speed Wind Dir Waves Ship Positions
date/time (UTC)wind fromknots sea level pressurealtimeterstation pressurevisibilityair tempwater tempwave heightnotes
2015-Jul-30 03:30 20.0
2015-Jul-30 03:00 20.0
2015-Jul-30 02:30 21.0
2015-Jul-30 02:00 21.0
2015-Jul-30 01:30 21.0
2015-Jul-29 21:00 160 4 24.0
2015-Jul-29 20:30 160 5 26.0
2015-Jul-29 20:00 230 8 28.0
2015-Jul-29 19:30 220 6 29.0
2015-Jul-29 19:00 230 9 30.0
2015-Jul-29 18:30 240 10 31.0
2015-Jul-29 18:00 250 10 33.0
2015-Jul-29 17:30 240 9 34.0
2015-Jul-29 17:00 240 10 34.0
2015-Jul-29 16:30 260 10 36.0
2015-Jul-29 16:00 250 10 36.0
2015-Jul-29 15:30 230 9 35.0
2015-Jul-29 15:00 240 10 35.0
2015-Jul-29 14:30 220 9 34.0
2015-Jul-29 14:00 220 9 34.0
2015-Jul-29 13:30 190 8 34.0
2015-Jul-29 13:00 210 7 34.0
2015-Jul-29 12:30 210 7 34.0
2015-Jul-29 12:00 210 8 33.0
2015-Jul-29 11:30 190 7 33.0
2015-Jul-29 11:00 200 7 32.0
2015-Jul-29 10:30 190 7 31.0
2015-Jul-29 10:00 190 8 30.0
2015-Jul-29 09:30 190 8 29.0
2015-Jul-29 09:00 180 9 28.0
2015-Jul-29 08:30 150 8 27.0
2015-Jul-29 08:00 150 6 26.0
2015-Jul-29 07:30 160 5 5.425.0
2015-Jul-29 07:00 160 5 4.924.0
2015-Jul-29 06:30 3.223.0
2015-Jul-29 06:00 140 3 4.921.0
2015-Jul-29 05:30 20.0
2015-Jul-29 05:00 21.0
2015-Jul-29 04:30 21.0
2015-Jul-29 04:00 190 4 21.0
2015-Jul-29 03:30 200 3 21.0
2015-Jul-29 03:00 21.0
2015-Jul-29 02:30 20.0
2015-Jul-29 02:00 20.0
2015-Jul-29 01:30 21.0
2015-Jul-28 21:00 200 4 26.0
2015-Jul-28 20:30 200 3 27.0
2015-Jul-28 20:00 220 4 28.0
2015-Jul-28 19:30 240 7 30.0
2015-Jul-28 19:00 270 5 31.0
2015-Jul-28 18:30 270 4 33.0
2015-Jul-28 18:00 290 9 34.0
2015-Jul-28 17:30 270 7 37.0
2015-Jul-28 17:00 250 8 36.0
2015-Jul-28 16:30 250 8 37.0
2015-Jul-28 16:00 230 9 37.0
2015-Jul-28 15:30 250 8 37.0
2015-Jul-28 15:00 240 10 36.0
2015-Jul-28 14:30 240 11 37.0
2015-Jul-28 14:00 210 11 37.0
2015-Jul-28 13:30 220 12 37.0
2015-Jul-28 13:00 200 8 38.0
2015-Jul-28 12:30 38.0
2015-Jul-28 12:00 37.0
2015-Jul-28 11:30 35.0
2015-Jul-28 11:00 34.0
2015-Jul-28 10:30 33.0
2015-Jul-28 10:00 32.0
2015-Jul-28 09:30 160 3 30.0
2015-Jul-28 09:00 29.0
2015-Jul-28 08:30 27.0
2015-Jul-28 08:00 26.0
2015-Jul-28 07:30 25.0
2015-Jul-28 07:00 23.0
2015-Jul-28 06:30 21.0
2015-Jul-28 06:00 20.0